GW0092 Weather Reports


time (UTC)temp
C
wind
direction
speed
KPH
gust
KPH
rain 1hr
cm
rain 24hr
cm
rain mn
cm
humidity
%
barometer
mb
20260831091559 22 0 0.0 0.0 0.00 0.00 0.00 100 1018.5
20260831090118 22 0 0.0 0.0 0.00 0.00 0.00 100 1018.5
20260831084558 22 0 0.0 0.0 0.00 0.00 0.00 99 1018.6
20260831083247 22 0 0.0 0.0 0.00 0.00 0.00 99 1018.4
20260831081605 22 0 0.0 0.0 0.00 0.00 0.00 99 1018.4
20260831080100 22 0 0.0 0.0 0.00 0.00 0.00 99 1018.6
20260831074557 22 0 0.0 0.0 0.00 0.00 0.00 99 1018.7
20260831073109 22 0 0.0 0.0 0.00 0.00 0.00 99 1018.9
20260831071608 22 0 0.0 0.0 0.00 0.00 0.00 99 1019.0
20260831070134 22 0 0.0 0.0 0.00 0.00 0.00 99 1019.1
20260831064604 22 0 0.0 0.0 0.00 0.00 0.00 99 1019.0
20260831063107 22 0 0.0 0.0 0.00 0.00 0.00 99 1019.1
20260831061610 22 0 0.0 0.0 0.00 0.00 0.00 99 1019.1
20260831060111 22 0 0.0 0.0 0.00 0.00 0.00 99 1019.1
20260831054554 22 0 0.0 0.0 0.00 0.00 0.00 99 1019.2
20260831053105 23 0 0.0 0.0 0.00 0.00 0.00 99 1019.1
20260831051618 23 0 0.0 0.0 0.00 0.00 0.00 98 1019.2
20260831050106 23 0 0.0 0.0 0.00 0.00 0.00 98 1019.2
20260831044604 23 0 0.0 1.6 0.00 0.00 0.00 98 1019.2
20260831043108 23 0 0.0 0.0 0.00 0.00 0.00 98 1019.2
20260831041559 23 0 0.0 0.0 0.00 0.00 0.00 98 1019.3
20260831040106 23 0 0.0 0.0 0.00 0.00 0.00 97 1019.2
20260831034556 23 0 0.0 0.0 0.00 0.00 0.00 97 1019.4
20260831033103 23 0 0.0 3.2 0.00 0.00 0.00 97 1019.7
20260831031558 23 0 0.0 1.6 0.00 0.00 0.00 97 1019.8
20260831024616 23 141 0.0 6.4 0.00 0.00 0.00 96 1019.9
20260831023055 23 0 0.0 0.0 0.00 0.00 0.00 96 1020.0
20260831021604 23 108 1.6 3.2 0.00 0.00 0.00 96 1020.1
20260831020103 23 0 0.0 0.0 0.00 0.00 0.00 96 1020.2
20260831014602 23 0 0.0 0.0 0.00 0.00 0.00 96 1020.2
20260831013056 23 0 0.0 1.6 0.00 0.00 0.00 96 1020.3
20260831011604 23 0 0.0 1.6 0.00 0.00 0.00 96 1020.3
20260831010130 23 0 0.0 1.6 0.00 0.00 0.00 96 1020.3
20260831004613 23 0 0.0 1.6 0.00 0.00 0.00 96 1020.1
20260831003110 23 0 0.0 3.2 0.00 0.00 0.00 95 1020.0
20260831001609 23 0 0.0 1.6 0.00 0.00 0.00 95 1020.0
20260831000057 23 0 0.0 1.6 0.00 0.00 0.00 94 1020.1
20260830234605 24 0 0.0 1.6 0.00 0.00 0.00 94 1020.1
20260830233104 24 0 0.0 1.6 0.00 0.00 0.00 93 1020.0
20260830231600 25 0 0.0 3.2 0.00 0.00 0.00 92 1019.8
20260830230109 25 148 0.0 3.2 0.00 0.00 0.00 91 1020.1
20260830224609 25 139 1.6 3.2 0.00 0.00 0.00 91 1020.1
20260830223104 25 127 1.6 6.4 0.00 0.00 0.00 90 1020.1
20260830221600 25 153 1.6 4.8 0.00 0.00 0.00 90 1020.2
20260830220126 26 139 0.0 4.8 0.00 0.00 0.00 89 1020.1
20260830214605 26 0 1.6 8.0 0.00 0.00 0.00 88 1019.9
20260830213103 27 110 1.6 8.0 0.00 0.00 0.00 85 1019.8
20260830211604 27 143 0.0 6.4 0.00 0.00 0.00 86 1019.8
20260830210111 27 142 0.0 8.0 0.00 0.00 0.00 85 1019.7
20260830204600 27 117 1.6 8.0 0.00 0.00 0.00 84 1019.7
20260830203115 27 179 1.6 9.7 0.00 0.00 0.00 84 1020.0
20260830201601 27 139 1.6 8.0 0.00 0.00 0.00 84 1020.1
20260830200105 27 145 0.0 8.0 0.00 0.00 0.00 85 1020.3
20260830194559 27 98 1.6 8.0 0.00 0.00 0.00 84 1020.5
20260830193106 27 193 1.6 12.9 0.00 0.00 0.00 84 1020.6
20260830191601 27 120 1.6 4.8 0.00 0.00 0.00 85 1020.7
20260830184558 27 250 0.0 6.4 0.00 0.00 0.00 85 1021.1
20260830183111 27 113 3.2 8.0 0.00 0.00 0.00 85 1021.2
20260830181623 27 123 1.6 6.4 0.00 0.00 0.00 86 1021.5
20260830180111 27 119 1.6 8.0 0.00 0.00 0.00 85 1021.5
20260830174556 27 138 1.6 4.8 0.00 0.00 0.00 86 1021.7
20260830173138 27 120 1.6 8.0 0.00 0.00 0.00 86 1021.9
20260830171606 27 160 1.6 6.4 0.00 0.00 0.00 84 1021.9
20260830170059 27 128 1.6 6.4 0.00 0.00 0.00 84 1022.1
20260830164608 27 0 0.0 3.2 0.00 0.00 0.00 82 1022.1
20260830163104 27 112 0.0 3.2 0.00 0.00 0.00 83 1022.4
20260830161634 27 105 1.6 6.4 0.00 0.00 0.00 80 1022.4
20260830160103 27 105 0.0 9.7 0.00 0.00 0.00 84 1022.6
20260830154601 26 84 1.6 4.8 0.00 0.00 0.00 83 1022.6
20260830153058 26 118 0.0 6.4 0.00 0.00 0.00 85 1022.8
20260830151603 26 98 3.2 8.0 0.00 0.00 0.00 86 1022.8
20260830150104 25 0 1.6 8.0 0.00 0.00 0.00 86 1022.9
20260830144605 26 0 0.0 9.7 0.00 0.00 0.00 89 1022.9
20260830143103 25 72 0.0 6.4 0.00 0.00 0.00 89 1022.9
20260830141602 24 0 0.0 4.8 0.00 0.00 0.00 92 1022.8
20260830140110 23 105 0.0 8.0 0.00 0.00 0.00 95 1022.8
20260830134600 23 85 0.0 3.2 0.00 0.00 0.00 100 1022.9
20260830133104 22 95 0.0 3.2 0.00 0.00 0.00 100 1023.1
20260830131616 21 0 0.0 4.8 0.00 0.00 0.00 100 1023.2
20260830130110 20 0 0.0 1.6 0.00 0.00 0.00 100 1023.5
20260830124606 20 0 0.0 0.0 0.00 0.00 0.00 100 1023.4
20260830123105 19 0 0.0 0.0 0.00 0.00 0.00 100 1023.5
20260830121607 18 0 0.0 0.0 0.00 0.00 0.00 100 1023.6
20260830120106 18 0 0.0 0.0 0.00 0.00 0.00 100 1023.5
20260830114552 17 0 0.0 0.0 0.00 0.00 0.00 100 1023.7
20260830113100 17 0 0.0 0.0 0.00 0.00 0.00 100 1023.6
20260830111559 17 0 0.0 0.0 0.00 0.00 0.00 100 1023.6
20260830110124 16 0 0.0 0.0 0.00 0.00 0.00 100 1023.7
20260830104553 16 0 0.0 0.0 0.00 0.00 0.00 100 1023.6
20260830103107 16 0 0.0 0.0 0.00 0.00 0.00 100 1023.5
20260830101602 16 0 0.0 0.0 0.00 0.00 0.00 99 1023.4
20260830100059 16 0 0.0 0.0 0.00 0.00 0.00 99 1023.5
20260830094605 16 0 0.0 0.0 0.00 0.00 0.00 99 1023.6
20260830093139 17 0 0.0 0.0 0.00 0.00 0.00 99 1023.4